Location: ??????
(41.3747°N, 22.5491°E)
Time: 14:27:51
(UTC+00:00)

SKYMED 2 - Pass Details

Date: 01 December 2020
Orbit: 621 x 623 km, 97.9° (Epoch: 21 January)

Event Time Altitude Azimuth Distance (km) Brightness Sun altitude
Exits shadow 16:34:13 11° 15° (NNE) 1,961 5.8 -17.0°
Maximum altitude 16:38:29 80° 102° (ESE) 638 3.4 -17.8°
Drops below altitude 10° 16:42:49 10° 190° (S) 1,986 6.4 -18.6°
Sets 16:44:59 0° 191° (SSW) 2,887 7.3 -19.0°
